Time,TemperatureF,DewpointF,PressureIn,WindDirection,WindDirectionDegrees,WindSpeedMPH,WindSpeedGustMPH,Humidity,HourlyPrecipIn,Conditions,Clouds,dailyrainin,SoftwareType,DateUTC
2013-02-16 00:00:00,45.0,26.4,30.03,ENE,72,0.0,6.0,48,0.00,,,0.00,meteohub,2013-02-16 05:00:00,
2013-02-16 00:05:00,44.8,26.2,30.03,ENE,72,3.0,4.0,48,0.00,,,0.00,meteohub,2013-02-16 05:05:00,
2013-02-16 00:10:00,44.6,26.1,30.03,East,89,0.0,3.0,48,0.00,,,0.00,meteohub,2013-02-16 05:10:00,
2013-02-16 00:15:00,44.2,25.7,30.03,ESE,118,0.0,6.0,48,0.00,,,0.00,meteohub,2013-02-16 05:15:00,
2013-02-16 00:20:00,44.2,25.7,30.03,East,97,0.0,6.0,48,0.00,,,0.00,meteohub,2013-02-16 05:20:00,
2013-02-16 00:23:00,44.1,25.7,30.03,East,97,0.0,6.0,48,0.00,,,0.00,meteohub,2013-02-16 05:23:00,
2013-02-16 00:28:00,43.9,25.5,30.03,East,97,0.0,6.0,48,0.00,,,0.00,meteohub,2013-02-16 05:28:00,
2013-02-16 00:33:00,43.7,25.3,30.03,East,98,0.0,4.0,48,0.00,,,0.00,meteohub,2013-02-16 05:33:00,
2013-02-16 00:38:00,43.7,25.7,30.03,ESE,109,0.0,0.0,49,0.00,,,0.00,meteohub,2013-02-16 05:38:00,
2013-02-16 00:43:00,43.5,25.7,30.03,ESE,109,0.0,0.0,49,0.00,,,0.00,meteohub,2013-02-16 05:43:00,
2013-02-16 00:48:00,43.3,25.5,30.03,ESE,102,0.0,0.0,49,0.00,,,0.00,meteohub,2013-02-16 05:48:00,
2013-02-16 00:53:00,43.3,25.5,30.03,ESE,105,0.0,0.0,49,0.00,,,0.00,meteohub,2013-02-16 05:53:00,
2013-02-16 00:58:00,43.0,25.2,30.03,ESE,105,0.0,0.0,49,0.00,,,0.00,meteohub,2013-02-16 05:58:00,
2013-02-16 01:03:00,42.8,25.0,30.03,ESE,105,0.0,0.0,49,0.00,,,0.00,meteohub,2013-02-16 06:03:00,
2013-02-16 01:08:00,42.8,25.0,30.03,ESE,105,0.0,0.0,49,0.00,,,0.00,meteohub,2013-02-16 06:08:00,
2013-02-16 01:13:00,42.8,25.0,30.03,ESE,105,0.0,0.0,49,0.00,,,0.00,meteohub,2013-02-16 06:13:00,
2013-02-16 01:18:00,42.8,25.0,30.03,ESE,105,0.0,0.0,49,0.00,,,0.00,meteohub,2013-02-16 06:18:00,
2013-02-16 01:23:00,42.8,25.0,30.03,ESE,105,0.0,0.0,49,0.00,,,0.00,meteohub,2013-02-16 06:23:00,
2013-02-16 01:28:00,42.6,24.8,30.03,ESE,105,0.0,0.0,49,0.00,,,0.00,meteohub,2013-02-16 06:28:00,
2013-02-16 01:33:00,42.6,24.8,30.03,ESE,105,0.0,0.0,49,0.00,,,0.00,meteohub,2013-02-16 06:33:00,
2013-02-16 01:38:00,42.4,25.2,30.03,ESE,105,0.0,0.0,50,0.00,,,0.00,meteohub,2013-02-16 06:38:00,
2013-02-16 01:43:00,42.4,25.2,30.03,ESE,105,0.0,0.0,50,0.00,,,0.00,meteohub,2013-02-16 06:43:00,
2013-02-16 01:48:00,42.4,25.2,30.03,ESE,105,0.0,0.0,50,0.00,,,0.00,meteohub,2013-02-16 06:48:00,
2013-02-16 01:53:00,42.4,25.2,30.03,ESE,105,0.0,0.0,50,0.00,,,0.00,meteohub,2013-02-16 06:53:00,
2013-02-16 01:58:00,42.4,25.2,30.03,ESE,105,0.0,0.0,50,0.00,,,0.00,meteohub,2013-02-16 06:58:00,
2013-02-16 02:03:00,42.4,25.2,30.00,ESE,105,0.0,0.0,50,0.00,,,0.00,meteohub,2013-02-16 07:03:00,
2013-02-16 02:08:00,42.4,25.2,30.00,ESE,105,0.0,0.0,50,0.00,,,0.00,meteohub,2013-02-16 07:08:00,
2013-02-16 02:13:00,42.4,25.2,30.00,ESE,105,0.0,0.0,50,0.00,,,0.00,meteohub,2013-02-16 07:13:00,
2013-02-16 02:19:00,42.4,25.2,30.00,ESE,105,0.0,0.0,50,0.00,,,0.00,meteohub,2013-02-16 07:19:00,
2013-02-16 02:24:00,42.4,25.2,30.00,ESE,117,0.0,0.0,50,0.00,,,0.00,meteohub,2013-02-16 07:24:00,
2013-02-16 02:29:00,42.4,25.2,30.00,ESE,117,0.0,3.0,50,0.00,,,0.00,meteohub,2013-02-16 07:29:00,
2013-02-16 02:34:00,42.4,25.2,30.00,SE,132,0.0,3.0,50,0.00,,,0.00,meteohub,2013-02-16 07:34:00,
2013-02-16 02:39:00,42.4,25.2,30.00,SE,142,2.0,3.0,50,0.00,,,0.00,meteohub,2013-02-16 07:39:00,
2013-02-16 02:44:00,42.3,24.4,30.00,SSE,158,0.0,3.0,49,0.00,,,0.00,meteohub,2013-02-16 07:44:00,
2013-02-16 02:49:00,42.3,24.4,30.00,SE,135,0.0,4.0,49,0.00,,,0.00,meteohub,2013-02-16 07:49:00,
2013-02-16 02:54:00,42.3,24.4,30.00,South,174,0.0,4.0,49,0.00,,,0.00,meteohub,2013-02-16 07:54:00,
2013-02-16 02:59:00,42.1,23.7,30.00,SE,143,2.0,4.0,48,0.00,,,0.00,meteohub,2013-02-16 07:59:00,
2013-02-16 03:04:00,41.9,23.7,30.00,SE,129,0.0,4.0,48,0.00,,,0.00,meteohub,2013-02-16 08:04:00,
2013-02-16 03:09:00,42.1,23.7,30.00,SSE,166,0.0,4.0,48,0.00,,,0.00,meteohub,2013-02-16 08:09:00,
2013-02-16 03:14:00,41.9,23.7,30.00,SE,139,0.0,3.0,48,0.00,,,0.00,meteohub,2013-02-16 08:14:00,
2013-02-16 03:19:00,41.7,23.5,30.00,East,88,0.0,0.0,48,0.00,,,0.00,meteohub,2013-02-16 08:19:00,
2013-02-16 03:24:00,41.7,23.5,30.00,SSE,147,3.0,0.0,48,0.00,,,0.00,meteohub,2013-02-16 08:24:00,
2013-02-16 03:29:00,41.7,23.0,30.00,East,79,0.0,3.0,47,0.00,,,0.00,meteohub,2013-02-16 08:29:00,
2013-02-16 03:34:00,41.7,22.5,30.00,SE,141,3.0,4.0,46,0.00,,,0.00,meteohub,2013-02-16 08:34:00,
2013-02-16 03:39:00,41.5,22.3,30.00,ENE,76,0.0,4.0,46,0.00,,,0.00,meteohub,2013-02-16 08:39:00,
2013-02-16 03:44:00,41.5,22.3,30.00,ESE,103,0.0,4.0,46,0.00,,,0.00,meteohub,2013-02-16 08:44:00,
2013-02-16 03:49:00,41.5,22.3,30.00,ESE,118,0.0,4.0,46,0.00,,,0.00,meteohub,2013-02-16 08:49:00,
2013-02-16 03:54:00,41.5,22.3,30.00,ESE,117,0.0,4.0,46,0.00,,,0.00,meteohub,2013-02-16 08:54:00,
2013-02-16 03:59:00,41.5,22.3,30.00,ESE,115,3.0,4.0,46,0.00,,,0.00,meteohub,2013-02-16 08:59:00,
2013-02-16 04:04:00,41.4,21.6,30.00,SE,131,0.0,4.0,45,0.00,,,0.00,meteohub,2013-02-16 09:04:00,
2013-02-16 04:09:00,41.4,21.6,30.00,SE,126,4.0,4.0,45,0.00,,,0.00,meteohub,2013-02-16 09:09:00,
2013-02-16 04:14:00,41.4,21.6,30.00,SE,129,0.0,4.0,45,0.00,,,0.00,meteohub,2013-02-16 09:14:00,
2013-02-16 04:19:00,41.2,21.4,30.00,ESE,108,0.0,4.0,45,0.00,,,0.00,meteohub,2013-02-16 09:19:00,
2013-02-16 04:24:00,41.2,21.4,30.00,SSE,150,0.0,4.0,45,0.00,,,0.00,meteohub,2013-02-16 09:24:00,
2013-02-16 04:29:00,41.2,20.8,30.00,SE,138,0.0,4.0,44,0.00,,,0.00,meteohub,2013-02-16 09:29:00,
2013-02-16 04:34:00,41.2,20.8,30.00,SE,125,0.0,3.0,44,0.00,,,0.00,meteohub,2013-02-16 09:34:00,
2013-02-16 04:39:00,41.0,20.8,30.00,SE,134,2.0,4.0,44,0.00,,,0.00,meteohub,2013-02-16 09:39:00,
2013-02-16 04:44:00,41.0,20.8,30.00,SE,132,0.0,4.0,44,0.00,,,0.00,meteohub,2013-02-16 09:44:00,
2013-02-16 04:49:00,41.0,20.8,30.00,SE,146,0.0,4.0,44,0.00,,,0.00,meteohub,2013-02-16 09:49:00,
2013-02-16 04:54:00,41.0,20.8,30.00,SE,146,0.0,4.0,44,0.00,,,0.00,meteohub,2013-02-16 09:54:00,
2013-02-16 04:59:00,41.0,20.8,30.00,SE,133,0.0,3.0,44,0.00,,,0.00,meteohub,2013-02-16 09:59:00,
2013-02-16 05:04:00,40.8,20.7,30.00,SSE,159,4.0,4.0,44,0.00,,,0.00,meteohub,2013-02-16 10:04:00,
2013-02-16 05:09:00,41.0,20.8,30.00,SE,136,3.0,4.0,44,0.00,,,0.00,meteohub,2013-02-16 10:09:00,
2013-02-16 05:14:00,41.0,20.8,30.00,SE,124,0.0,4.0,44,0.00,,,0.00,meteohub,2013-02-16 10:14:00,
2013-02-16 05:19:00,41.0,20.3,30.00,South,181,0.0,4.0,43,0.00,,,0.00,meteohub,2013-02-16 10:19:00,
2013-02-16 05:24:00,41.0,20.3,30.00,South,178,3.0,3.0,43,0.00,,,0.00,meteohub,2013-02-16 10:24:00,
2013-02-16 05:30:00,41.0,19.6,30.00,SE,145,0.0,6.0,42,0.00,,,0.00,meteohub,2013-02-16 10:30:00,
2013-02-16 05:35:00,41.0,19.6,30.00,SE,143,0.0,6.0,42,0.00,,,0.00,meteohub,2013-02-16 10:35:00,
2013-02-16 05:40:00,41.0,19.6,30.00,SE,143,0.0,6.0,42,0.00,,,0.00,meteohub,2013-02-16 10:40:00,
2013-02-16 05:45:00,40.8,20.1,30.00,SE,143,0.0,4.0,43,0.00,,,0.00,meteohub,2013-02-16 10:45:00,
2013-02-16 05:50:00,40.8,20.1,30.00,SE,143,0.0,0.0,43,0.00,,,0.00,meteohub,2013-02-16 10:50:00,
2013-02-16 05:55:00,40.8,20.1,30.00,East,95,0.0,0.0,43,0.00,,,0.00,meteohub,2013-02-16 10:55:00,
2013-02-16 06:00:00,40.8,20.1,30.00,ESE,102,0.0,0.0,43,0.00,,,0.00,meteohub,2013-02-16 11:00:00,
2013-02-16 06:05:00,40.8,20.1,30.00,ENE,66,3.0,0.0,43,0.00,,,0.00,meteohub,2013-02-16 11:05:00,
2013-02-16 06:10:00,40.8,19.6,30.00,East,99,2.0,7.0,42,0.00,,,0.00,meteohub,2013-02-16 11:10:00,
2013-02-16 06:15:00,40.6,19.4,30.00,ESE,108,0.0,7.0,42,0.00,,,0.00,meteohub,2013-02-16 11:15:00,
2013-02-16 06:20:00,40.6,18.9,30.00,SSE,159,2.0,7.0,41,0.00,,,0.00,meteohub,2013-02-16 11:20:00,
2013-02-16 06:25:00,40.6,18.9,30.00,East,90,5.0,5.0,41,0.00,,,0.00,meteohub,2013-02-16 11:25:00,
2013-02-16 06:30:00,40.3,19.0,30.00,SSE,147,5.0,9.0,42,0.00,,,0.00,meteohub,2013-02-16 11:30:00,
2013-02-16 06:35:00,40.1,18.9,30.00,SSE,150,0.0,9.0,42,0.00,,,0.00,meteohub,2013-02-16 11:35:00,
2013-02-16 06:40:00,40.1,19.4,30.00,SSE,159,4.0,9.0,43,0.00,,,0.00,meteohub,2013-02-16 11:40:00,
2013-02-16 06:45:00,39.9,19.2,30.00,South,183,5.0,6.0,43,0.00,,,0.00,meteohub,2013-02-16 11:45:00,
2013-02-16 06:50:00,39.7,19.6,30.00,SSW,192,4.0,6.0,44,0.00,,,0.00,meteohub,2013-02-16 11:50:00,
2013-02-16 06:55:00,39.6,19.4,30.00,SSE,168,3.0,6.0,44,0.00,,,0.00,meteohub,2013-02-16 11:55:00,
2013-02-16 07:00:00,39.4,19.8,30.00,South,178,2.0,6.0,45,0.00,,,0.00,meteohub,2013-02-16 12:00:00,
2013-02-16 07:05:00,39.2,20.1,30.00,South,183,0.0,6.0,46,0.00,,,0.00,meteohub,2013-02-16 12:05:00,
2013-02-16 07:10:00,39.2,20.7,30.00,SE,133,0.0,4.0,47,0.00,,,0.00,meteohub,2013-02-16 12:10:00,
2013-02-16 07:15:00,39.2,20.7,30.00,SSE,151,0.0,4.0,47,0.00,,,0.00,meteohub,2013-02-16 12:15:00,
2013-02-16 07:20:00,39.2,21.2,30.00,SSE,151,0.0,2.0,48,0.00,,,0.00,meteohub,2013-02-16 12:20:00,
2013-02-16 07:25:00,39.0,21.6,30.00,SSE,151,0.0,0.0,49,0.00,,,0.00,meteohub,2013-02-16 12:25:00,
2013-02-16 07:30:00,39.2,21.6,30.00,SSE,151,0.0,0.0,49,0.00,,,0.00,meteohub,2013-02-16 12:30:00,
2013-02-16 07:35:00,39.2,21.6,30.00,SW,226,0.0,0.0,49,0.00,,,0.00,meteohub,2013-02-16 12:35:00,
2013-02-16 07:40:00,39.0,21.9,30.00,West,275,0.0,0.0,50,0.00,,,0.00,meteohub,2013-02-16 12:40:00,
2013-02-16 07:45:00,39.6,22.5,30.00,WSW,237,4.0,0.0,50,0.00,,,0.00,meteohub,2013-02-16 12:45:00,
2013-02-16 07:50:00,39.6,22.5,30.00,SW,229,4.0,4.0,50,0.00,,,0.00,meteohub,2013-02-16 12:50:00,
2013-02-16 07:55:00,39.2,22.1,30.00,WSW,246,2.0,5.0,50,0.00,,,0.00,meteohub,2013-02-16 12:55:00,
2013-02-16 08:00:00,39.0,22.5,30.00,SSW,195,0.0,5.0,51,0.00,,,0.00,meteohub,2013-02-16 13:00:00,
2013-02-16 08:05:00,38.8,22.3,30.00,SSW,213,3.0,6.0,51,0.00,,,0.00,meteohub,2013-02-16 13:05:00,
2013-02-16 08:11:00,38.7,22.1,30.00,SW,229,0.0,6.0,51,0.00,,,0.00,meteohub,2013-02-16 13:11:00,
2013-02-16 08:16:00,38.8,22.6,29.97,West,261,0.0,6.0,52,0.00,,,0.00,meteohub,2013-02-16 13:16:00,
2013-02-16 08:21:00,38.7,22.6,29.97,SSW,212,2.0,4.0,52,0.00,,,0.00,meteohub,2013-02-16 13:21:00,
2013-02-16 08:26:00,38.7,23.0,29.97,West,259,0.0,4.0,53,0.00,,,0.00,meteohub,2013-02-16 13:26:00,
2013-02-16 08:31:00,38.8,23.2,29.97,WSW,241,0.0,4.0,53,0.00,,,0.00,meteohub,2013-02-16 13:31:00,
2013-02-16 08:36:00,39.0,23.7,29.97,WSW,241,0.0,3.0,54,0.00,,,0.00,meteohub,2013-02-16 13:36:00,
2013-02-16 08:41:00,39.0,23.7,29.97,WSW,241,0.0,0.0,54,0.00,,,0.00,meteohub,2013-02-16 13:41:00,
2013-02-16 08:46:00,39.0,23.7,30.00,WSW,241,0.0,0.0,54,0.00,,,0.00,meteohub,2013-02-16 13:46:00,
2013-02-16 08:51:00,39.2,23.9,30.00,WSW,241,0.0,0.0,54,0.00,,,0.00,meteohub,2013-02-16 13:51:00,
2013-02-16 08:56:00,39.2,23.9,30.00,WSW,241,0.0,0.0,54,0.00,,,0.00,meteohub,2013-02-16 13:56:00,
2013-02-16 09:01:00,39.2,23.9,29.97,WSW,241,0.0,0.0,54,0.00,,,0.00,meteohub,2013-02-16 14:01:00,
2013-02-16 09:06:00,39.4,24.1,29.97,WSW,241,0.0,0.0,54,0.00,,,0.00,meteohub,2013-02-16 14:06:00,
2013-02-16 09:11:00,39.4,24.1,29.97,WSW,241,0.0,0.0,54,0.00,,,0.00,meteohub,2013-02-16 14:11:00,
2013-02-16 09:16:00,39.6,24.3,29.97,WSW,241,0.0,0.0,54,0.00,,,0.00,meteohub,2013-02-16 14:16:00,
2013-02-16 09:21:00,39.6,24.3,29.97,WSW,241,0.0,0.0,54,0.00,,,0.00,meteohub,2013-02-16 14:21:00,
2013-02-16 09:26:00,39.7,24.4,29.97,WSW,241,0.0,0.0,54,0.00,,,0.00,meteohub,2013-02-16 14:26:00,
2013-02-16 09:31:00,40.1,24.8,29.97,WSW,241,0.0,0.0,54,0.00,,,0.00,meteohub,2013-02-16 14:31:00,
2013-02-16 09:36:00,40.6,25.3,29.97,WSW,241,0.0,0.0,54,0.00,,,0.00,meteohub,2013-02-16 14:36:00,
2013-02-16 09:41:00,40.5,24.6,29.97,WSW,241,0.0,0.0,53,0.00,,,0.00,meteohub,2013-02-16 14:41:00,
2013-02-16 09:46:00,40.5,24.6,29.97,WSW,241,0.0,0.0,53,0.00,,,0.00,meteohub,2013-02-16 14:46:00,
2013-02-16 09:51:00,40.6,24.8,29.97,West,260,0.0,0.0,53,0.00,,,0.00,meteohub,2013-02-16 14:51:00,
2013-02-16 09:56:00,40.8,24.6,29.97,SW,220,0.0,0.0,52,0.00,,,0.00,meteohub,2013-02-16 14:56:00,
2013-02-16 10:01:00,40.8,24.6,29.97,WSW,240,0.0,3.0,52,0.00,,,0.00,meteohub,2013-02-16 15:01:00,
2013-02-16 10:06:00,41.2,24.4,29.97,SSW,209,0.0,3.0,51,0.00,,,0.00,meteohub,2013-02-16 15:06:00,
2013-02-16 10:11:00,41.7,25.3,29.97,SSW,212,0.0,3.0,52,0.00,,,0.00,meteohub,2013-02-16 15:11:00,
2013-02-16 10:16:00,41.7,25.0,29.97,WSW,256,0.0,4.0,51,0.00,,,0.00,meteohub,2013-02-16 15:16:00,
2013-02-16 10:22:00,41.9,24.6,29.97,SSW,195,0.0,4.0,50,0.00,,,0.00,meteohub,2013-02-16 15:22:00,
2013-02-16 10:27:00,41.9,24.6,29.97,WSW,237,0.0,4.0,50,0.00,,,0.00,meteohub,2013-02-16 15:27:00,
2013-02-16 10:32:00,41.9,24.6,29.97,West,260,0.0,4.0,50,0.00,,,0.00,meteohub,2013-02-16 15:32:00,
2013-02-16 10:37:00,41.9,24.6,29.97,West,260,0.0,4.0,50,0.00,,,0.00,meteohub,2013-02-16 15:37:00,
2013-02-16 10:42:00,42.3,25.0,29.97,WSW,256,2.0,4.0,50,0.00,,,0.00,meteohub,2013-02-16 15:42:00,
2013-02-16 10:47:00,42.4,25.2,29.97,WSW,258,0.0,4.0,50,0.00,,,0.00,meteohub,2013-02-16 15:47:00,
2013-02-16 10:52:00,42.6,25.3,29.97,SSW,211,3.0,4.0,50,0.00,,,0.00,meteohub,2013-02-16 15:52:00,
2013-02-16 10:57:00,42.6,25.3,29.97,West,267,3.0,5.0,50,0.00,,,0.00,meteohub,2013-02-16 15:57:00,
2013-02-16 11:02:00,42.8,25.0,29.97,WSW,250,0.0,5.0,49,0.00,,,0.00,meteohub,2013-02-16 16:02:00,
2013-02-16 11:07:00,43.2,25.3,29.97,SW,233,0.0,5.0,49,0.00,,,0.00,meteohub,2013-02-16 16:07:00,
2013-02-16 11:12:00,43.5,25.7,29.97,WSW,242,0.0,4.0,49,0.00,,,0.00,meteohub,2013-02-16 16:12:00,
2013-02-16 11:17:00,43.7,25.3,29.97,WSW,251,0.0,4.0,48,0.00,,,0.00,meteohub,2013-02-16 16:17:00,
2013-02-16 11:22:00,43.9,25.5,29.97,SW,222,4.0,4.0,48,0.00,,,0.00,meteohub,2013-02-16 16:22:00,
2013-02-16 11:27:00,43.7,24.3,29.97,South,180,0.0,4.0,46,0.00,,,0.00,meteohub,2013-02-16 16:27:00,
2013-02-16 11:32:00,43.7,24.3,29.94,South,183,0.0,4.0,46,0.00,,,0.00,meteohub,2013-02-16 16:32:00,
2013-02-16 11:37:00,44.2,24.8,29.94,West,267,0.0,4.0,46,0.00,,,0.00,meteohub,2013-02-16 16:37:00,
2013-02-16 11:42:00,44.6,24.1,29.94,SSW,199,0.0,4.0,44,0.00,,,0.00,meteohub,2013-02-16 16:42:00,
2013-02-16 11:47:00,44.8,24.3,29.94,WNW,282,0.0,6.0,44,0.00,,,0.00,meteohub,2013-02-16 16:47:00,
2013-02-16 11:52:00,44.8,23.7,29.94,SSW,210,4.0,6.0,43,0.00,,,0.00,meteohub,2013-02-16 16:52:00,
2013-02-16 11:57:00,44.6,23.0,29.94,SW,214,0.0,6.0,42,0.00,,,0.00,meteohub,2013-02-16 16:57:00,
2013-02-16 12:02:00,45.0,22.6,29.94,WSW,258,0.0,6.0,41,0.00,,,0.00,meteohub,2013-02-16 17:02:00,
2013-02-16 12:07:00,45.1,22.8,29.94,SW,226,3.0,8.0,41,0.00,,,0.00,meteohub,2013-02-16 17:07:00,
2013-02-16 12:12:00,45.7,23.4,29.94,West,268,4.0,8.0,41,0.00,,,0.00,meteohub,2013-02-16 17:12:00,
2013-02-16 12:17:00,45.7,23.4,29.94,SSW,204,3.0,6.0,41,0.00,,,0.00,meteohub,2013-02-16 17:17:00,
2013-02-16 12:22:00,45.5,23.2,29.94,SSE,166,0.0,6.0,41,0.00,,,0.00,meteohub,2013-02-16 17:22:00,
2013-02-16 12:27:00,45.9,23.5,29.94,West,261,6.0,8.0,41,0.00,,,0.00,meteohub,2013-02-16 17:27:00,
2013-02-16 12:32:00,46.0,23.7,29.91,WSW,239,0.0,8.0,41,0.00,,,0.00,meteohub,2013-02-16 17:32:00,
2013-02-16 12:37:00,46.0,23.7,29.91,SW,217,5.0,8.0,41,0.00,,,0.00,meteohub,2013-02-16 17:37:00,
2013-02-16 12:42:00,46.4,23.4,29.91,West,272,4.0,8.0,40,0.00,,,0.00,meteohub,2013-02-16 17:42:00,
2013-02-16 12:47:00,46.8,23.7,29.91,SSW,193,6.0,8.0,40,0.00,,,0.00,meteohub,2013-02-16 17:47:00,
2013-02-16 12:52:00,46.6,23.0,29.91,SW,223,4.0,8.0,39,0.00,,,0.00,meteohub,2013-02-16 17:52:00,
2013-02-16 12:57:00,46.8,23.7,29.91,WSW,244,3.0,8.0,40,0.00,,,0.00,meteohub,2013-02-16 17:57:00,
2013-02-16 13:02:00,46.6,23.5,29.91,SSW,195,4.0,8.0,40,0.00,,,0.00,meteohub,2013-02-16 18:02:00,
2013-02-16 13:07:00,45.9,22.8,29.91,SW,222,3.0,8.0,40,0.00,,,0.00,meteohub,2013-02-16 18:07:00,
2013-02-16 13:12:00,45.5,22.6,29.91,South,188,0.0,6.0,40,0.00,,,0.00,meteohub,2013-02-16 18:12:00,
2013-02-16 13:17:00,45.1,22.8,29.88,SSE,151,0.0,6.0,41,0.00,,,0.00,meteohub,2013-02-16 18:17:00,
2013-02-16 13:22:00,44.8,22.5,29.88,ENE,69,0.0,6.0,41,0.00,,,0.00,meteohub,2013-02-16 18:22:00,
2013-02-16 13:27:00,44.2,22.1,29.88,NE,46,11.0,11.0,41,0.00,,,0.00,meteohub,2013-02-16 18:27:00,
2013-02-16 13:32:00,43.3,21.7,29.91,NE,40,9.0,13.0,42,0.00,,,0.00,meteohub,2013-02-16 18:32:00,
2013-02-16 13:37:00,42.6,21.7,29.91,NNE,32,6.0,13.0,43,0.00,,,0.00,meteohub,2013-02-16 18:37:00,
2013-02-16 13:42:00,42.1,21.7,29.91,ENE,69,6.0,13.0,44,0.00,,,0.00,meteohub,2013-02-16 18:42:00,
2013-02-16 13:47:00,41.4,22.1,29.88,ENE,68,5.0,9.0,46,0.00,,,0.00,meteohub,2013-02-16 18:47:00,
2013-02-16 13:52:00,40.5,22.8,29.88,East,89,8.0,13.0,49,0.00,,,0.00,meteohub,2013-02-16 18:52:00,
2013-02-16 13:57:00,39.7,22.6,29.88,ENE,61,10.0,15.0,50,0.00,,,0.00,meteohub,2013-02-16 18:57:00,
2013-02-16 14:02:00,39.2,22.6,29.88,ENE,77,8.0,15.0,51,0.00,,,0.00,meteohub,2013-02-16 19:02:00,
2013-02-16 14:07:00,38.7,23.0,29.88,ENE,70,8.0,13.0,53,0.00,,,0.00,meteohub,2013-02-16 19:07:00,
2013-02-16 14:12:00,38.3,23.2,29.88,East,86,10.0,13.0,54,0.00,,,0.00,meteohub,2013-02-16 19:12:00,
2013-02-16 14:17:00,38.1,23.4,29.91,NE,51,3.0,13.0,55,0.00,,,0.00,meteohub,2013-02-16 19:17:00,
2013-02-16 14:22:00,38.1,23.4,29.91,SSE,167,0.0,13.0,55,0.00,,,0.00,meteohub,2013-02-16 19:22:00,
2013-02-16 14:27:00,38.1,23.4,29.91,ENE,75,8.0,12.0,55,0.00,,,0.00,meteohub,2013-02-16 19:27:00,
2013-02-16 14:32:00,37.9,23.2,29.91,ESE,123,11.0,11.0,55,0.00,,,0.00,meteohub,2013-02-16 19:32:00,
2013-02-16 14:37:00,37.9,23.7,29.91,East,93,0.0,13.0,56,0.00,,,0.00,meteohub,2013-02-16 19:37:00,
2013-02-16 14:42:00,37.9,23.7,29.91,NE,51,4.0,13.0,56,0.00,,,0.00,meteohub,2013-02-16 19:42:00,
2013-02-16 14:47:00,37.9,24.1,29.91,ENE,68,4.0,13.0,57,0.00,,,0.00,meteohub,2013-02-16 19:47:00,
2013-02-16 14:52:00,37.8,23.9,29.91,ENE,71,6.0,11.0,57,0.00,,,0.00,meteohub,2013-02-16 19:52:00,
2013-02-16 14:57:00,37.6,23.7,29.91,NE,54,11.0,11.0,57,0.00,,,0.00,meteohub,2013-02-16 19:57:00,
2013-02-16 15:02:00,37.4,23.5,29.91,East,98,5.0,11.0,57,0.00,,,0.00,meteohub,2013-02-16 20:02:00,
2013-02-16 15:07:00,37.2,23.7,29.91,NE,44,7.0,11.0,58,0.00,,,0.00,meteohub,2013-02-16 20:07:00,
2013-02-16 15:12:00,37.2,23.7,29.91,East,97,4.0,11.0,58,0.00,,,0.00,meteohub,2013-02-16 20:12:00,
2013-02-16 15:17:00,37.4,23.9,29.91,NE,41,0.0,11.0,58,0.00,,,0.00,meteohub,2013-02-16 20:17:00,
2013-02-16 15:22:00,37.4,23.9,29.91,NE,39,0.0,10.0,58,0.00,,,0.00,meteohub,2013-02-16 20:22:00,
2013-02-16 15:27:00,37.4,23.9,29.91,NE,47,3.0,6.0,58,0.00,,,0.00,meteohub,2013-02-16 20:27:00,
2013-02-16 15:32:00,37.2,24.3,29.91,ENE,72,5.0,6.0,59,0.00,,,0.00,meteohub,2013-02-16 20:32:00,
2013-02-16 15:37:00,37.0,24.1,29.91,East,100,0.0,6.0,59,0.00,,,0.00,meteohub,2013-02-16 20:37:00,
2013-02-16 15:42:00,37.2,24.3,29.91,NE,44,0.0,6.0,59,0.00,,,0.00,meteohub,2013-02-16 20:42:00,
2013-02-16 15:47:00,37.4,24.4,29.91,NE,44,0.0,5.0,59,0.00,,,0.00,meteohub,2013-02-16 20:47:00,
2013-02-16 15:52:00,37.4,24.8,29.91,SSE,157,0.0,3.0,60,0.00,,,0.00,meteohub,2013-02-16 20:52:00,
2013-02-16 15:57:00,37.8,25.2,29.91,SE,138,0.0,0.0,60,0.00,,,0.00,meteohub,2013-02-16 20:57:00,
2013-02-16 16:02:00,37.9,25.3,29.91,SW,216,0.0,0.0,60,0.00,,,0.00,meteohub,2013-02-16 21:02:00,
2013-02-16 16:07:00,37.9,25.3,29.91,SW,216,0.0,0.0,60,0.00,,,0.00,meteohub,2013-02-16 21:07:00,
2013-02-16 16:12:00,37.8,25.2,29.91,SW,216,0.0,0.0,60,0.00,,,0.00,meteohub,2013-02-16 21:12:00,
2013-02-16 16:17:00,37.9,25.3,29.91,SW,216,0.0,0.0,60,0.00,,,0.00,meteohub,2013-02-16 21:17:00,
2013-02-16 16:22:00,37.9,25.3,29.91,SW,216,0.0,0.0,60,0.00,,,0.00,meteohub,2013-02-16 21:22:00,
2013-02-16 16:27:00,37.8,25.2,29.91,SW,216,0.0,0.0,60,0.00,,,0.00,meteohub,2013-02-16 21:27:00,
2013-02-16 16:32:00,37.8,25.2,29.91,SW,216,0.0,0.0,60,0.00,,,0.00,meteohub,2013-02-16 21:32:00,
2013-02-16 16:37:00,37.8,25.2,29.91,SW,216,0.0,0.0,60,0.00,,,0.00,meteohub,2013-02-16 21:37:00,
2013-02-16 16:42:00,37.6,25.0,29.91,SW,216,0.0,0.0,60,0.00,,,0.00,meteohub,2013-02-16 21:42:00,
2013-02-16 16:47:00,37.6,25.0,29.91,SW,216,0.0,0.0,60,0.00,,,0.00,meteohub,2013-02-16 21:47:00,
2013-02-16 16:52:00,37.8,25.2,29.91,SW,216,0.0,0.0,60,0.00,,,0.00,meteohub,2013-02-16 21:52:00,
2013-02-16 16:57:00,37.6,25.0,29.91,SW,216,0.0,0.0,60,0.00,,,0.00,meteohub,2013-02-16 21:57:00,
2013-02-16 17:02:00,37.6,25.3,29.91,SW,216,0.0,0.0,61,0.00,,,0.00,meteohub,2013-02-16 22:02:00,
2013-02-16 17:07:00,37.4,25.2,29.91,SW,216,0.0,0.0,61,0.00,,,0.00,meteohub,2013-02-16 22:07:00,
2013-02-16 17:12:00,37.2,25.3,29.91,SW,216,0.0,0.0,62,0.00,,,0.00,meteohub,2013-02-16 22:12:00,
2013-02-16 17:17:00,37.2,25.3,29.91,SW,216,0.0,0.0,62,0.00,,,0.00,meteohub,2013-02-16 22:17:00,
2013-02-16 17:22:00,37.4,24.8,29.91,NNW,337,5.0,5.0,60,0.00,,,0.00,meteohub,2013-02-16 22:22:00,
2013-02-16 17:27:00,37.4,22.3,29.91,North,4,3.0,9.0,54,0.00,,,0.00,meteohub,2013-02-16 22:27:00,
2013-02-16 17:32:00,37.2,20.3,29.94,North,7,15.0,15.0,50,0.00,,,0.00,meteohub,2013-02-16 22:32:00,
2013-02-16 17:37:00,37.0,17.6,29.94,NE,34,8.0,18.0,45,0.00,,,0.00,meteohub,2013-02-16 22:37:00,
2013-02-16 17:42:00,36.9,16.0,29.94,North,1,9.0,18.0,42,0.00,,,0.00,meteohub,2013-02-16 22:42:00,
2013-02-16 17:47:00,36.7,15.3,29.94,NW,317,4.0,18.0,41,0.00,,,0.00,meteohub,2013-02-16 22:47:00,
2013-02-16 17:52:00,36.3,14.4,29.94,North,11,8.0,17.0,40,0.00,,,0.00,meteohub,2013-02-16 22:52:00,
2013-02-16 17:57:00,36.3,14.4,29.94,North,0,9.0,13.0,40,0.00,,,0.00,meteohub,2013-02-16 22:57:00,
2013-02-16 18:02:00,36.1,13.6,29.94,NNE,25,3.0,15.0,39,0.00,,,0.00,meteohub,2013-02-16 23:02:00,
2013-02-16 18:07:00,36.0,13.5,29.94,NNE,13,3.0,15.0,39,0.00,,,0.00,meteohub,2013-02-16 23:07:00,
2013-02-16 18:12:00,35.8,12.7,29.94,NNE,13,4.0,15.0,38,0.00,,,0.00,meteohub,2013-02-16 23:12:00,
2013-02-16 18:17:00,35.6,11.8,29.97,North,8,3.0,17.0,37,0.00,,,0.00,meteohub,2013-02-16 23:17:00,
2013-02-16 18:22:00,35.4,11.7,29.97,NNE,15,4.0,17.0,37,0.00,,,0.00,meteohub,2013-02-16 23:22:00,
2013-02-16 18:27:00,35.4,11.1,29.97,NNE,22,8.0,13.0,36,0.00,,,0.00,meteohub,2013-02-16 23:27:00,
2013-02-16 18:32:00,35.1,10.2,29.97,NNE,19,3.0,12.0,35,0.00,,,0.00,meteohub,2013-02-16 23:32:00,
2013-02-16 18:37:00,35.1,10.2,29.97,NNE,33,6.0,11.0,35,0.00,,,0.00,meteohub,2013-02-16 23:37:00,
2013-02-16 18:42:00,34.7,9.9,29.97,NNE,18,6.0,11.0,35,0.00,,,0.00,meteohub,2013-02-16 23:42:00,
2013-02-16 18:47:00,34.5,10.2,29.97,NW,326,6.0,11.0,36,0.00,,,0.00,meteohub,2013-02-16 23:47:00,
2013-02-16 18:52:00,34.3,9.5,29.97,WNW,291,3.0,9.0,35,0.00,,,0.00,meteohub,2013-02-16 23:52:00,
2013-02-16 18:57:00,34.3,10.2,29.97,North,8,3.0,11.0,36,0.00,,,0.00,meteohub,2013-02-16 23:57:00,
2013-02-16 19:02:00,34.0,9.9,30.00,SW,219,0.0,12.0,36,0.00,,,0.00,meteohub,2013-02-17 00:02:00,
2013-02-16 19:07:00,34.0,10.4,30.00,North,1,6.0,12.0,37,0.00,,,0.00,meteohub,2013-02-17 00:07:00,
2013-02-16 19:12:00,33.8,10.2,30.00,North,10,4.0,10.0,37,0.00,,,0.00,meteohub,2013-02-17 00:12:00,
2013-02-16 19:17:00,33.8,10.9,30.00,North,6,3.0,12.0,38,0.00,,,0.00,meteohub,2013-02-17 00:17:00,
2013-02-16 19:22:00,33.6,11.3,30.00,North,353,0.0,12.0,39,0.00,,,0.00,meteohub,2013-02-17 00:22:00,
2013-02-16 19:27:00,33.6,11.8,30.00,NE,35,3.0,12.0,40,0.00,,,0.00,meteohub,2013-02-17 00:27:00,
2013-02-16 19:32:00,33.4,11.7,30.00,NE,52,2.0,9.0,40,0.00,,,0.00,meteohub,2013-02-17 00:32:00,
2013-02-16 19:37:00,33.3,11.5,30.00,North,1,3.0,9.0,40,0.00,,,0.00,meteohub,2013-02-17 00:37:00,
2013-02-16 19:42:00,33.3,11.5,30.00,North,357,3.0,9.0,40,0.00,,,0.00,meteohub,2013-02-17 00:42:00,
2013-02-16 19:47:00,33.1,11.3,30.00,NNW,341,5.0,8.0,40,0.00,,,0.00,meteohub,2013-02-17 00:47:00,
2013-02-16 19:52:00,33.1,11.3,30.00,North,353,5.0,8.0,40,0.00,,,0.00,meteohub,2013-02-17 00:52:00,
2013-02-16 19:57:00,33.1,12.0,30.00,North,357,5.0,8.0,41,0.00,,,0.00,meteohub,2013-02-17 00:57:00,
2013-02-16 20:02:00,32.9,11.8,30.03,North,8,4.0,8.0,41,0.00,,,0.00,meteohub,2013-02-17 01:02:00,
2013-02-16 20:07:00,32.7,11.7,30.03,North,349,3.0,8.0,41,0.00,,,0.00,meteohub,2013-02-17 01:07:00,
2013-02-16 20:12:00,32.7,11.7,30.03,NW,314,3.0,6.0,41,0.00,,,0.00,meteohub,2013-02-17 01:12:00,
2013-02-16 20:17:00,32.5,11.5,30.03,North,3,0.0,6.0,41,0.00,,,0.00,meteohub,2013-02-17 01:17:00,
2013-02-16 20:22:00,32.5,11.5,30.03,North,353,5.0,5.0,41,0.00,,,0.00,meteohub,2013-02-17 01:22:00,
2013-02-16 20:27:00,32.4,11.8,30.03,NNE,24,2.0,6.0,42,0.00,,,0.00,meteohub,2013-02-17 01:27:00,
2013-02-16 20:32:00,32.2,11.7,30.03,NNE,29,10.0,10.0,42,0.00,,,0.00,meteohub,2013-02-17 01:32:00,
2013-02-16 20:37:00,32.4,11.3,30.03,NNE,12,3.0,10.0,41,0.00,,,0.00,meteohub,2013-02-17 01:37:00,
2013-02-16 20:42:00,32.2,11.1,30.03,North,11,0.0,10.0,41,0.00,,,0.00,meteohub,2013-02-17 01:42:00,
2013-02-16 20:47:00,32.2,11.1,30.03,NNE,19,4.0,10.0,41,0.00,,,0.00,meteohub,2013-02-17 01:47:00,
2013-02-16 20:52:00,32.0,10.9,30.03,North,8,4.0,6.0,41,0.00,,,0.00,meteohub,2013-02-17 01:52:00,
2013-02-16 20:57:00,32.0,10.9,30.03,NNW,337,0.0,8.0,41,0.00,,,0.00,meteohub,2013-02-17 01:57:00,
2013-02-16 21:02:00,31.8,10.8,30.06,NW,322,3.0,8.0,41,0.00,,,0.00,meteohub,2013-02-17 02:02:00,
2013-02-16 21:07:00,31.8,10.8,30.06,North,353,6.0,8.0,41,0.00,,,0.00,meteohub,2013-02-17 02:07:00,
2013-02-16 21:12:00,31.8,10.8,30.06,NNE,27,5.0,8.0,41,0.00,,,0.00,meteohub,2013-02-17 02:12:00,
2013-02-16 21:17:00,31.6,10.6,30.06,NNE,22,5.0,8.0,41,0.00,,,0.00,meteohub,2013-02-17 02:17:00,
2013-02-16 21:22:00,31.8,10.8,30.06,North,357,5.0,8.0,41,0.00,,,0.00,meteohub,2013-02-17 02:22:00,
2013-02-16 21:27:00,31.6,10.6,30.06,North,353,4.0,8.0,41,0.00,,,0.00,meteohub,2013-02-17 02:27:00,
2013-02-16 21:32:00,31.6,10.6,30.06,NNE,17,6.0,8.0,41,0.00,,,0.00,meteohub,2013-02-17 02:32:00,
2013-02-16 21:37:00,31.5,10.4,30.06,NNE,12,3.0,8.0,41,0.00,,,0.00,meteohub,2013-02-17 02:37:00,
2013-02-16 21:42:00,31.5,10.4,30.06,North,353,4.0,8.0,41,0.00,,,0.00,meteohub,2013-02-17 02:42:00,
2013-02-16 21:47:00,31.5,10.4,30.06,NNE,24,3.0,8.0,41,0.00,,,0.00,meteohub,2013-02-17 02:47:00,
2013-02-16 21:52:00,31.5,10.4,30.06,NNE,28,9.0,9.0,41,0.00,,,0.00,meteohub,2013-02-17 02:52:00,
2013-02-16 21:57:00,31.3,10.2,30.06,North,2,3.0,9.0,41,0.00,,,0.00,meteohub,2013-02-17 02:57:00,
2013-02-16 22:02:00,31.3,10.2,30.06,North,357,3.0,9.0,41,0.00,,,0.00,meteohub,2013-02-17 03:02:00,
2013-02-16 22:07:00,31.1,10.2,30.06,NNE,17,6.0,9.0,41,0.00,,,0.00,meteohub,2013-02-17 03:07:00,
2013-02-16 22:12:00,31.1,10.2,30.06,North,357,11.0,11.0,41,0.00,,,0.00,meteohub,2013-02-17 03:12:00,
2013-02-16 22:17:00,31.1,10.2,30.06,North,353,4.0,11.0,41,0.00,,,0.00,meteohub,2013-02-17 03:17:00,
2013-02-16 22:22:00,30.9,10.0,30.06,WNW,300,3.0,11.0,41,0.00,,,0.00,meteohub,2013-02-17 03:22:00,
2013-02-16 22:27:00,30.9,10.0,30.06,North,2,8.0,11.0,41,0.00,,,0.00,meteohub,2013-02-17 03:27:00,
2013-02-16 22:32:00,30.9,9.5,30.09,NNW,339,3.0,8.0,40,0.00,,,0.00,meteohub,2013-02-17 03:32:00,
2013-02-16 22:37:00,30.7,9.3,30.09,North,4,6.0,8.0,40,0.00,,,0.00,meteohub,2013-02-17 03:37:00,
2013-02-16 22:42:00,30.7,9.3,30.09,North,353,4.0,8.0,40,0.00,,,0.00,meteohub,2013-02-17 03:42:00,
2013-02-16 22:47:00,30.7,9.3,30.09,North,9,6.0,8.0,40,0.00,,,0.00,meteohub,2013-02-17 03:47:00,
2013-02-16 22:52:00,30.7,9.3,30.09,North,6,3.0,8.0,40,0.00,,,0.00,meteohub,2013-02-17 03:52:00,
2013-02-16 22:57:00,30.6,8.6,30.09,NNE,27,3.0,8.0,39,0.00,,,0.00,meteohub,2013-02-17 03:57:00,
2013-02-16 23:02:00,30.4,8.4,30.09,North,11,6.0,8.0,39,0.00,,,0.00,meteohub,2013-02-17 04:02:00,
2013-02-16 23:07:00,30.4,8.4,30.09,North,353,0.0,8.0,39,0.00,,,0.00,meteohub,2013-02-17 04:07:00,
2013-02-16 23:12:00,30.2,8.8,30.09,NNE,25,3.0,8.0,40,0.00,,,0.00,meteohub,2013-02-17 04:12:00,
2013-02-16 23:17:00,30.2,8.2,30.09,NNW,348,0.0,8.0,39,0.00,,,0.00,meteohub,2013-02-17 04:17:00,
2013-02-16 23:22:00,30.2,8.2,30.09,NNW,340,0.0,5.0,39,0.00,,,0.00,meteohub,2013-02-17 04:22:00,
2013-02-16 23:27:00,29.8,8.4,30.09,North,357,0.0,5.0,40,0.00,,,0.00,meteohub,2013-02-17 04:27:00,
2013-02-16 23:32:00,29.7,8.2,30.09,NNE,30,0.0,4.0,40,0.00,,,0.00,meteohub,2013-02-17 04:32:00,
2013-02-16 23:37:00,29.7,8.2,30.09,WNW,303,0.0,4.0,40,0.00,,,0.00,meteohub,2013-02-17 04:37:00,
2013-02-16 23:42:00,29.5,8.1,30.09,North,2,0.0,4.0,40,0.00,,,0.00,meteohub,2013-02-17 04:42:00,
2013-02-16 23:47:00,29.3,7.9,30.09,NW,321,0.0,4.0,40,0.00,,,0.00,meteohub,2013-02-17 04:47:00,
2013-02-16 23:52:00,29.3,8.6,30.09,West,280,2.0,2.0,41,0.00,,,0.00,meteohub,2013-02-17 04:52:00,
2013-02-16 23:57:00,29.1,8.4,30.09,NNW,329,0.0,2.0,41,0.00,,,0.00,meteohub,2013-02-17 04:57:00,